Flag for Netherlands Weather past 2 weeks in Haarlem, Netherlands

54 °F

Partly sunny.

Feels Like: 53 °F
Forecast: 54 / 59 °F
Wind: 3 mph from West

Location: Amsterdam Schiphol Airport

Current Time: Oct 8, 2015 at 8:48:37 PM

Latest Report: Oct 8, 2015 at 7:55 PM

Visibility: N/A

Pressure: 30.15 "Hg

Humidity: 94%

Dew point: 52 °F

Location of HaarlemLocation

Historic Weather in Haarlem — Graph


Haarlem temperature yesterday

Maximum temperature yesterday: 61 °F (at 12:25 AM)
Minimum temperature yesterday: 57 °F (at 2:25 AM)
Average temperature yesterday: 59 °F

Past Weeks' High & Low Weather Summary

High64 °F (Oct 3, 4:25 PM)100% (Sep 24, 3:25 AM)30.66 "Hg (Sep 24, 3:25 AM)
Low43 °F (Oct 2, 7:55 AM)55% (Sep 29, 5:25 PM)29.53 "Hg (Oct 6, 2:55 PM)
Average55 °F86%30.17 "Hg
* Reported Sep 23 7:25 PM — Oct 8 7:55 PM, Haarlem, Weather by CustomWeather, © 2015

Note: Actual official high and low records may vary slightly from our data, if they occured in-between our weather recording intervals... More about our weather records


Haarlem weather history for previous 24 hours

Time TempWeatherWind HumidityBarometerVisibility
7:55 PM
Thu, Oct 8
54 °FPartly sunny.3 mph94%30.15 "HgN/A
7:25 PM54 °FPartly sunny.3 mph94%30.15 "HgN/A
6:55 PM54 °FPartly sunny.6 mph88%30.15 "HgN/A
6:25 PM55 °FScattered clouds.7 mph82%30.12 "HgN/A
5:55 PM57 °FPassing clouds.7 mph77%30.12 "HgN/A
5:25 PM57 °FPassing clouds.10 mph82%30.12 "HgN/A
4:55 PM57 °FScattered clouds.12 mph82%30.12 "HgN/A
4:25 PM59 °FScattered clouds.9 mph77%30.12 "HgN/A
3:55 PM59 °FPartly sunny.8 mph72%30.12 "HgN/A
3:25 PM59 °FPartly sunny.9 mph72%30.12 "HgN/A
2:55 PM59 °FPartly sunny.7 mph77%30.12 "HgN/A
2:25 PM61 °FScattered clouds.9 mph77%30.12 "HgN/A
1:55 PM59 °FScattered clouds.9 mph77%30.09 "HgN/A
1:25 PM59 °FScattered clouds.9 mph77%30.09 "HgN/A
12:55 PM59 °FScattered clouds.10 mph77%30.09 "HgN/A
12:25 PM59 °FPassing clouds.12 mph77%30.09 "HgN/A
11:55 AM61 °FPassing clouds.10 mph72%30.09 "HgN/A
11:25 AM59 °FScattered clouds.10 mph77%30.09 "HgN/A
10:55 AM59 °FPassing clouds.10 mph77%30.07 "HgN/A
10:25 AM57 °FPassing clouds.10 mph82%30.07 "HgN/A
9:55 AM57 °FPassing clouds.9 mph82%30.07 "HgN/A
9:25 AM57 °FPassing clouds.8 mph88%30.04 "HgN/A
8:55 AM55 °FPassing clouds.7 mph94%30.04 "HgN/A
8:25 AM55 °FPassing clouds.7 mph94%30.04 "HgN/A
7:55 AM55 °FPartly cloudy.10 mph94%30.04 "HgN/A
7:25 AM55 °FPartly cloudy.7 mph94%30.01 "HgN/A
6:55 AM55 °FPartly cloudy.8 mph94%30.01 "Hg6 mi
6:25 AM57 °FPassing clouds.6 mph88%30.01 "Hg4 mi
5:55 AM57 °FLight rain. Passing clouds.7 mph88%30.01 "HgN/A
5:25 AM57 °FPassing clouds.8 mph88%29.98 "HgN/A
4:55 AM57 °FPassing clouds.7 mph88%29.98 "HgN/A
4:25 AM57 °FPassing clouds.8 mph94%29.98 "HgN/A
3:55 AM57 °FPassing clouds.8 mph94%29.98 "HgN/A
3:25 AM55 °FPassing clouds.12 mph100%29.98 "HgN/A
2:55 AM57 °FPassing clouds.7 mph94%29.98 "HgN/A
2:25 AM57 °FPassing clouds.7 mph94%29.95 "HgN/A
1:55 AM57 °FPassing clouds.9 mph94%29.95 "HgN/A
1:25 AM57 °FPassing clouds.10 mph94%29.95 "HgN/A
12:55 AM57 °FPassing clouds.12 mph94%29.95 "HgN/A
11:55 PM
Wed, Oct 7
57 °FPassing clouds.12 mph94%29.95 "HgN/A
10:55 PM59 °FPassing clouds.12 mph88%29.92 "HgN/A
10:25 PM59 °FPartly cloudy.9 mph94%29.92 "Hg5 mi
9:55 PM59 °FPartly cloudy.10 mph100%29.89 "HgN/A
9:25 PM59 °FPartly cloudy.13 mph100%29.89 "Hg5 mi
8:55 PM59 °FPartly cloudy.8 mph100%29.86 "Hg4 mi
8:25 PM59 °FPassing clouds.12 mph100%29.86 "HgN/A
Weather by CustomWeather, © 2015

See weather overviewHow to use our weather pages